Terminal Aerodrome Forecast
Issued by NWS Charleston, WV

Current Version | Previous Version | Graphics & Text | Print | Product List | Glossary On
Versions: 1 2 3 4 5 6 7 8 9 10 11 12 13 14 15 16 17 18 19 20
000
FTUS41 KRLX 232300
TAFCRW
TAF
KCRW 232324Z 2400/2424 14014G25KT P6SM -SHRA OVC070
     FM240500 17012KT P6SM BKN040
     FM240900 20012KT P6SM BKN040
     FM241500 21014G28KT P6SM BKN080
     FM241800 23018G37KT P6SM BKN080
     FM242300 25014G26KT P6SM SCT080=

USA.gov is the U.S. government's official web portal to all federal, state and local government web resources and services.